SCP
0 0 0 0 0 0 0 0 0 0 0 0 0 0 0 0 0 0 0 0 0 0 0 0 0 0 0 0 0 0 0 0 0 0 0 0 0 0 0 0 0 0 0 0 0 0 0 0 0 0 0 0 0 0
0 0 0 0 0 0 0 0 0 0 0 0 0 0 0 0 0 0 0 0 0 0 0 0 -0 -0 -0 -0 0 0 -0 0 0 0 0 -0 0 0 0 0 0 0 0 0 0 0 0 -0 0 0 0 0 0 0
0 0 0 0 0 0 0 0 0 0 0 0 0 0 0 0 0 0 0 0 0 0 0 0 -0 -0 -0 -0 -0 0 0 0 0 -0 -0 -0 0 0 0 0 0 0 0 0 0 0 0 0 0 0 0 0 2 2
0 0 0 0 0 0 0 0 0 0 0 0 0 0 0 0 0 0 0 0 0 0 0 0 0 0 0 0 -0 -0 -0 0 0 -0 0 0 0 -0 -0 0 0 0 0 0 0 0 0 0 0 0 0 0 1 1
0 0 0 0 0 0 0 0 0 0 0 0 0 0 0 0 0 0 0 0 0 0 0 0 0 0 -0 0 -0 -0 -0 -0 0 0 0 0 -0 -0 -0 -0 0 0 0 0 0 0 0 0 0 0 0 0 0 0
0 0 0 0 0 0 0 0 0 0 0 0 0 0 0 0 0 0 0 0 0 0 0 0 0 0 0 0 -0 -0 -0 -0 -0 0 0 0 0 -0 0 0 0 0 0 0 0 0 0 0 0 0 0 0 0 0
0 0 0 0 0 0 0 0 0 0 0 0 0 0 0 0 0 0 0 0 0 0 0 0 0 0 0 0 -0 -0 -0 -0 0 0 -0 0 -0 -0 0 0 -0 0 0 0 0 0 0 0 0 0 0 0 0 0
0 0 0 0 0 0 0 -0 0 0 0 0 0 0 0 0 0 0 0 0 0 0 0 0 0 0 0 0 0 -0 0 0 0 0 0 0 0 0 0 -0 -0 0 0 0 0 0 0 0 0 0 0 0 0 0
0 0 0 0 0 0 -0 -0 0 0 0 0 0 0 0 0 0 0 0 0 0 0 0 0 0 0 -0 -0 0 0 0 0 0 0 0 0 0 0 0 0 -0 0 0 0 0 0 0 0 0 0 0 0 0 0
0 0 0 0 0 -0 -0 -0 -0 -0 -0 0 0 0 0 0 0 0 0 0 0 0 0 0 0 0 0 0 0 0 0 0 0 0 0 0 0 0 0 0 0 -0 0 0 0 0 0 0 0 0 0 0 0 0
0 0 0 0 -0 -0 -0 -0 -0 -0 0 0 0 0 0 0 0 0 0 0 0 0 0 0 0 0 0 0 0 0 0 0 0 0 0 0 0 0 -0 0 -0 0 0 0 0 0 0 0 0 0 0 0 0 0
0 0 0 0 -0 -0 -0 -0 -0 0 0 0 0 0 0 0 0 0 0 0 0 0 0 0 0 0 0 0 0 0 0 0 0 0 0 0 0 -0 -0 0 0 0 0 0 0 0 0 0 0 0 0 0 0 0
0 -0 -0 -0 -0 -0 -0 -0 -0 0 0 0 0 0 0 0 0 0 0 0 0 0 0 0 0 0 0 0 0 0 0 0 0 0 0 0 0 0 0 0 0 0 0 0 0 0 0 0 0 0 0 0 0 0
-0 -0 -0 -0 -0 -0 -0 -0 -0 0 0 0 0 0 0 0 0 0 0 0 0 0 0 0 0 0 0 0 0 0 0 0 0 0 0 0 0 0 0 -0 0 0 0 0 -0 -0 0 0 0 0 0 0 0 0
-0 -0 -0 0 0 -0 -0 -0 -0 0 0 0 0 0 0 0 0 0 0 0 0 0 0 0 0 0 0 0 0 0 0 0 0 0 0 0 0 0 -0 -0 0 -0 0 0 0 -0 0 0 0 0 0 0 0 0
0 0 0 0 0 -0 -0 0 0 0 0 0 0 0 0 0 0 0 0 0 0 0 0 0 0 0 0 0 0 0 0 0 0 0 0 0 0 0 0 0 0 0 -0 -0 0 0 0 0 0 0 0 0 -0 -0
0 0 0 0 0 0 0 0 0 0 -0 0 0 0 0 0 0 0 0 0 0 0 0 0 0 0 0 0 0 0 0 0 0 0 0 0 0 0 0 0 0 0 -0 -0 -0 -0 -0 -0 -0 -0 -0 -0 -0 -0
0 0 0 0 0 0 0 0 0 0 -0 0 -0 0 0 0 0 0 0 0 0 0 0 0 0 0 -0 0 0 0 0 0 0 0 0 0 0 0 0 0 0 -0 -0 -0 -0 -0 -0 -0 -0 -0 -0 -0 -0 -0
0 0 -0 0 0 0 0 0 0 0 0 0 0 0 0 0 0 0 0 0 0 0 0 -0 -0 0 -0 0 0 0 0 0 0 0 0 -0 -0 -0 -0 -0 -0 -0 -0 -0 -0 -0 0 -0 -0 0 -0 -0 0 0
-0 0 0 0 0 0 0 0 0 0 0 0 0 0 0 0 0 0 0 0 0 0 0 -0 -0 -0 -0 -0 -0 -0 0 0 0 0 0 0 0 -0 -0 -0 -0 -0 -0 -0 -0 -0 -0 -0 0 0 0 0 0 0
0 0 0 0 0 0 0 0 0 0 0 0 0 0 0 0 0 -0 -0 0 0 -0 -0 -0 -0 -0 -0 -0 0 0 -0 0 0 0 0 0 0 0 0 0 0 0 0 0 0 0 0 0 0 0 0 0 0 0
0 0 0 0 0 0 0 0 0 0 0 0 0 0 0 0 0 0 0 -0 -0 0 0 -0 -0 -0 -0 0 -0 -0 0 0 0 0 0 0 0 0 0 0 0 0 0 0 -0 0 0 0 0 0 0 0 0 0
0 0 0 0 0 0 0 0 0 0 0 0 0 0 0 0 0 0 0 0 0 0 0 0 0 0 0 0 -0 -0 0 0 0 0 0 0 0 0 0 0 0 0 0 0 0 0 0 0 0 0 0 0 0 0
0 0 0 0 0 0 0 0 0 0 0 0 0 0 0 0 0 0 0 0 0 0 0 0 0 0 -0 -0 -0 -0 -0 -0 0 0 0 0 0 0 0 0 0 0 -0 -0 0 0 0 0 0 0 0 0 0 0
0 0 0 0 0 0 0 0 0 0 0 0 0 0 0 0 0 0 0 0 0 0 0 0 0 0 0 -0 -0 -0 0 0 0 0 0 0 0 0 0 0 0 0 0 0 0 0 0 0 0 0 0 0 0 0
-0 0 0 0 0 0 0 0 0 0 0 0 0 0 0 0 0 0 0 0 0 0 0 0 0 0 0 0 0 -0 -0 0 0 0 0 0 0 0 0 0 0 0 0 0 0 0 0 0 0 0 0 0 0 0
0 0 0 0 0 0 0 0 0 0 0 0 0 0 0 0 0 0 0 0 0 0 0 0 0 0 0 0 0 0 0 0 0 0 0 0 0 0 0 0 0 0 0 0 0 0 0 0 0 0 0 0 0 0
0 0 0 0 -0 0 0 0 0 0 0 0 0 0 0 0 0 0 0 0 0 0 0 0 0 0 0 0 0 0 0 0 0 0 0 0 0 0 0 0 0 0 0 0 0 0 0 0 0 0 0 0 0 0
0 0 0 0 0 0 0 0 0 0 0 0 0 0 0 0 0 0 0 0 0 0 0 0 0 0 0 0 0 0 0 0 0 0 0 0 0 0 0 0 0 0 0 0 0 0 0 0 0 0 0 0 0 0
0 0 0 0 0 0 0 0 0 0 0 0 0 0 0 0 0 0 0 0 0 0 0 0 0 0 0 0 0 0 0 0 0 -0 0 0 0 0 0 0 0 0 0 0 0 0 0 0 0 0 0 0 0 0
0 0 0 0 0 0 0 0 0 0 0 0 0 0 0 0 0 0 0 0 0 0 0 0 0 0 0 0 0 0 0 0 0 0 -0 -0 0 0 0 0 0 0 0 0 0 0 0 0 0 0 0 0 0 0
0 0 0 0 0 0 0 0 0 0 0 0 0 0 0 0 0 0 0 0 0 0 0 0 0 0 0 0 0 0 0 0 0 0 0 -0 0 0 0 0 0 0 0 0 0 0 0 0 0 0 0 0 0 0
0 0 0 0 0 0 0 0 0 0 0 0 0 0 0 0 0 0 0 0 0 0 0 0 0 0 0 0 0 0 0 0 0 0 0 0 0 0 0 0 0 0 0 0 0 0 0 0 0 0 0 0 0 0
Wind_Speed_500mb
38 41 43 46 47 49 50 51 52 52 53 51 49 45 40 35 28 30 35 26 27 25 48 55 53 39 33 21 7 11 18 3 4 5 4 6 6 8 8 10 10 15 20 13 13 14 16 27 18 14 20 68 56 34
37 39 43 46 49 52 55 56 57 59 59 58 57 54 46 37 33 28 39 23 26 34 53 64 74 78 66 65 41 25 19 6 5 1 3 3 8 6 9 9 8 10 10 15 17 11 7 4 8 35 46 59 59 40
37 40 45 47 51 55 59 61 63 65 63 61 60 57 48 39 33 32 39 39 35 34 56 36 36 21 28 39 52 28 30 21 15 22 8 7 11 5 7 8 11 13 17 12 11 9 11 31 55 61 68 65 28 7
43 45 50 53 57 62 67 69 69 68 64 68 67 62 51 39 35 31 39 42 34 17 13 19 30 34 39 39 46 58 63 24 30 27 12 7 6 11 7 10 9 19 12 26 31 8 7 22 44 53 71 36 33 26
47 50 55 60 64 66 71 74 76 74 76 79 72 57 46 38 34 35 41 44 45 33 10 30 68 14 6 17 38 53 65 70 46 12 8 7 8 8 5 9 20 19 14 16 18 13 12 12 27 40 46 21 45 48
52 54 57 62 67 72 74 77 78 80 85 79 63 51 39 32 26 30 12 14 14 32 10 8 19 25 17 12 25 36 43 52 33 17 9 11 16 10 7 7 15 35 29 12 8 26 50 30 19 32 16 36 60 59
58 61 64 66 69 73 74 79 80 85 86 71 63 41 31 24 21 26 14 9 20 19 6 9 10 15 22 13 14 28 29 29 28 16 11 13 21 19 7 7 22 28 8 11 29 47 38 27 22 18 31 52 67 67
64 67 68 69 70 73 75 78 80 88 82 77 53 40 32 18 18 24 36 44 42 16 7 5 8 13 15 9 2 1 16 30 19 17 14 6 11 9 9 25 21 20 20 15 24 14 57 43 28 18 25 42 56 58
65 65 66 68 68 71 73 74 81 85 83 68 43 29 10 4 7 11 6 6 21 14 6 6 4 5 17 4 10 12 2 1 11 5 4 4 4 8 17 19 36 32 13 32 33 40 54 41 41 31 33 45 55 51
64 62 61 63 64 64 66 68 79 78 80 57 25 11 6 21 28 11 4 6 10 9 9 5 7 7 7 1 3 6 5 3 4 3 6 3 6 33 39 30 37 35 38 53 53 35 46 42 39 38 40 38 37 40
59 56 56 59 59 60 58 66 68 73 75 46 25 9 26 25 11 4 2 1 3 4 10 13 19 6 7 5 4 9 3 4 4 2 4 6 7 17 41 38 46 48 46 58 62 55 55 46 40 36 32 28 33 36
55 52 51 54 55 53 54 52 59 69 61 44 26 23 15 8 5 6 6 3 3 5 11 8 12 18 10 10 5 5 2 2 4 14 5 6 13 42 40 16 31 44 45 47 54 54 46 37 31 32 34 31 26 35
49 46 47 48 46 48 40 46 58 62 55 23 14 12 10 12 10 10 13 8 8 6 7 9 4 8 4 2 4 2 8 6 10 7 7 6 23 24 31 44 64 41 40 46 58 64 61 53 42 38 36 32 30 31
43 40 38 39 39 31 41 51 53 52 24 16 15 17 11 11 13 9 19 14 30 34 31 4 4 3 3 2 4 6 7 6 9 11 17 19 46 43 50 60 67 59 63 60 61 62 65 61 59 55 50 41 42 46
38 29 33 31 27 35 42 44 39 38 20 16 18 13 11 27 39 46 42 49 65 52 30 7 8 11 7 8 9 9 11 11 10 12 12 39 42 50 58 60 66 66 67 69 72 72 63 58 65 59 50 50 49 39
33 29 35 27 29 35 39 34 35 31 16 16 21 15 40 28 45 64 57 55 78 57 17 21 10 10 15 9 13 14 6 11 12 11 44 52 44 55 71 78 82 87 88 79 73 72 78 73 70 69 60 63 59 54
24 27 28 22 27 40 28 27 24 26 20 15 19 53 42 35 32 47 63 56 48 47 14 10 14 15 7 12 14 13 10 11 33 47 52 46 53 61 70 71 74 75 76 75 74 76 73 69 58 55 60 60 60 60
24 24 26 24 15 29 42 38 18 16 16 24 20 44 50 57 53 53 63 77 40 33 26 11 14 15 11 12 13 17 30 45 50 56 60 58 66 66 66 71 71 69 67 70 67 65 61 56 53 53 49 47 40 40
21 25 26 22 22 21 12 22 18 11 18 24 46 52 52 55 70 69 68 68 67 57 26 14 12 8 7 11 22 42 51 45 44 49 58 54 52 55 61 61 63 62 60 59 61 61 61 59 56 54 55 51 52 48
16 19 22 25 18 8 8 10 11 11 6 15 22 40 57 56 60 65 71 66 46 41 32 11 9 18 24 43 49 53 46 42 43 52 54 55 58 56 56 56 57 55 53 51 54 53 50 50 50 48 46 46 46 45
12 13 18 17 16 14 7 7 8 6 6 6 2 9 11 22 45 56 56 48 42 37 19 30 44 48 53 54 53 50 43 46 48 46 44 53 53 55 56 57 55 54 54 52 52 53 54 47 42 43 44 44 41 40
4 9 10 11 10 7 6 9 4 7 3 4 7 9 8 9 13 14 25 32 25 26 34 29 36 41 47 53 56 53 40 42 45 45 43 42 50 50 50 47 48 51 51 48 45 43 42 36 34 31 32 35 30 29
6 5 6 9 6 7 3 3 2 3 4 2 6 6 7 10 13 10 10 18 18 35 42 24 24 30 34 34 39 46 44 26 30 35 38 40 39 39 40 41 39 38 36 37 33 31 29 29 33 31 26 27 28 33
6 5 7 5 8 6 8 7 2 5 4 5 5 3 4 6 12 8 5 13 28 36 37 22 14 20 27 34 36 36 34 30 18 19 23 25 31 35 32 32 31 33 31 28 29 31 33 34 30 26 27 26 27 31
4 6 6 7 6 6 6 8 10 9 4 4 4 2 3 5 5 4 2 8 20 24 22 12 18 14 21 24 29 25 21 16 18 27 23 20 20 19 23 25 25 25 25 27 30 31 29 24 28 29 29 29 28 26
7 6 4 10 5 4 4 4 4 2 2 4 3 5 2 5 4 4 4 14 16 15 24 16 8 5 9 16 22 25 16 10 16 17 22 20 20 20 22 24 23 25 21 17 20 21 21 22 24 25 25 25 24 24
4 3 1 5 6 5 4 6 5 8 5 4 3 3 4 5 3 5 11 17 18 16 23 11 12 12 11 9 14 18 23 18 17 12 8 10 16 22 22 26 30 25 21 22 20 19 19 20 21 21 21 22 21 20
0 2 1 12 4 1 4 4 4 2 4 5 4 4 4 6 8 3 13 29 29 16 7 4 8 10 7 6 10 16 22 24 30 18 3 5 7 11 15 16 14 15 15 13 17 17 17 15 16 18 20 21 19 20
6 6 3 5 3 1 1 4 4 2 6 2 8 5 7 7 7 6 15 14 8 10 13 14 11 9 7 5 6 12 17 23 36 42 30 23 20 21 20 20 18 12 15 16 18 16 16 18 18 18 18 19 19 18
8 18 9 7 7 6 8 8 10 11 9 9 8 9 9 10 12 11 12 9 6 8 10 13 10 12 14 10 11 16 17 19 30 38 38 27 17 16 26 25 16 17 13 14 17 17 16 17 17 17 19 22 23 25
9 19 8 10 10 14 16 18 17 17 16 15 13 13 13 9 11 8 8 9 10 13 9 12 11 12 11 12 21 24 16 11 17 27 34 27 21 20 24 25 16 15 14 15 12 13 14 16 20 23 23 23 26 27
16 19 13 9 6 12 28 28 24 23 18 18 18 21 17 12 9 8 3 6 15 17 11 8 12 11 9 15 21 14 11 8 10 17 26 25 20 22 19 20 24 17 17 17 14 13 15 16 18 22 24 26 26 26
7 19 12 11 11 17 17 22 19 11 19 21 22 32 24 12 8 11 10 8 15 17 9 8 12 10 7 15 22 8 6 3 7 14 20 19 19 21 17 17 20 21 20 16 14 12 13 15 19 23 25 27 27 27
Wind_Direction_500mb
356 357 358 355 352 350 347 344 340 337 333 331 327 323 322 321 307 297 294 288 269 266 272 265 260 253 250 232 230 303 335 275 350 238 277 330 244 249 286 265 294 194 164 183 231 220 254 8 11 5 307 301 296 250
349 350 349 347 346 344 341 337 334 331 328 326 322 319 310 306 307 294 286 295 285 275 270 281 275 270 257 253 248 247 242 311 285 136 218 320 292 269 302 276 310 235 185 177 203 229 151 128 280 321 324 298 290 289
339 341 341 340 340 338 336 334 333 331 328 325 321 318 310 296 295 287 289 288 292 287 299 272 280 309 253 239 239 237 247 224 218 246 211 220 240 266 263 259 300 282 196 182 256 222 233 39 358 346 334 321 333 266
329 333 333 333 335 334 332 331 332 329 326 326 322 317 308 292 282 282 277 286 276 269 276 278 298 269 266 258 249 238 236 236 249 252 238 233 232 229 250 268 276 263 270 216 224 272 264 33 358 345 326 337 77 90
325 326 326 328 329 331 331 332 332 330 330 330 326 318 304 294 283 273 269 273 269 234 283 294 301 303 116 253 238 241 236 238 237 254 235 225 226 250 269 256 240 231 238 211 218 184 123 72 2 335 323 11 86 95
322 323 323 325 327 329 331 332 332 332 337 337 330 319 307 298 286 277 286 252 207 215 276 301 308 301 313 267 240 240 236 218 212 204 236 230 213 204 245 264 290 277 264 227 225 151 123 103 8 325 320 71 88 86
320 321 322 325 327 328 331 332 332 335 341 338 328 329 323 317 265 235 247 254 191 234 250 290 284 286 323 309 244 231 218 201 198 220 236 234 243 225 234 241 240 247 243 322 148 129 112 131 118 354 48 82 88 83
317 319 321 324 326 330 332 331 332 336 344 338 326 316 307 297 293 257 281 275 264 255 222 264 275 304 352 338 66 342 195 209 231 232 240 233 276 226 253 266 304 292 294 252 176 135 123 122 122 47 61 81 81 81
316 317 319 321 324 328 331 331 332 340 344 343 331 339 23 24 289 287 288 206 197 199 203 223 263 284 340 5 14 320 268 229 249 257 257 277 312 241 272 312 295 285 228 157 145 124 109 106 96 107 92 86 87 82
319 319 319 320 325 330 332 332 334 340 344 350 346 3 26 332 335 289 95 138 181 202 216 243 241 264 299 308 273 283 223 248 243 291 331 306 262 278 324 354 2 79 127 134 118 108 111 101 101 91 78 75 74 77
321 321 322 322 328 331 333 336 338 340 352 348 338 337 323 343 332 310 49 354 160 243 221 238 217 249 249 241 217 219 341 352 300 337 342 331 309 325 358 31 33 63 90 108 110 106 101 101 100 98 87 76 73 80
326 327 325 325 330 333 339 343 341 342 345 335 326 318 338 358 359 338 297 137 241 264 207 208 223 214 253 239 16 30 285 255 337 334 356 17 327 340 330 359 41 67 47 77 90 85 81 74 85 97 98 77 84 82
334 333 332 332 337 343 353 354 347 346 348 345 344 340 351 8 10 17 337 301 308 261 234 220 230 225 233 114 174 338 19 20 332 19 7 252 275 337 16 45 67 59 76 85 89 88 75 69 110 96 89 92 94 95
343 345 341 345 350 360 0 355 357 354 359 12 8 346 27 352 0 337 324 330 335 335 333 300 155 262 271 25 59 30 15 349 31 15 21 17 19 38 63 75 69 65 73 80 81 84 74 73 74 73 69 75 80 76
353 357 359 7 21 11 5 13 11 9 8 31 26 15 357 331 340 356 5 13 1 356 5 2 39 38 7 51 21 16 23 19 354 20 15 9 34 50 62 61 63 72 69 76 80 78 75 74 74 70 75 70 74 83
1 16 15 28 33 23 22 29 32 26 34 45 38 10 352 9 6 10 5 9 12 9 360 33 31 22 26 21 7 28 31 13 3 359 10 39 43 51 66 74 73 70 72 77 77 74 70 75 76 74 80 76 70 72
16 11 20 32 51 42 42 33 37 36 28 36 8 24 21 20 1 13 17 6 21 19 12 42 41 22 16 14 6 359 21 360 333 7 33 40 61 76 67 71 70 65 64 66 66 65 68 73 76 78 73 71 71 69
18 17 18 17 13 51 41 44 60 58 38 34 30 19 40 34 21 23 24 29 30 18 14 44 60 22 31 19 19 355 360 9 28 31 36 57 68 76 76 73 71 71 70 68 68 65 63 63 61 57 56 60 61 58
34 36 28 24 38 36 22 29 52 84 53 43 48 50 48 45 46 45 46 43 48 50 53 48 57 23 1 346 1 14 30 38 29 35 58 71 79 80 79 77 76 74 71 67 66 64 65 65 60 55 53 52 55 55
40 31 34 40 40 36 55 37 34 76 58 70 69 55 55 53 49 48 46 42 41 40 41 44 41 34 38 44 46 41 44 52 64 70 69 75 80 85 79 77 76 76 75 69 63 63 64 66 66 60 58 59 64 65
42 43 39 46 41 46 64 51 66 79 114 131 62 41 56 39 43 43 39 37 45 48 43 66 74 68 61 53 46 44 50 57 66 74 77 74 71 73 71 70 70 71 71 70 68 68 70 72 71 74 72 71 69 70
331 15 25 23 27 30 62 44 56 119 113 14 3 24 30 9 14 29 41 36 36 35 44 74 68 61 55 49 45 43 54 70 73 73 69 66 60 59 58 56 53 57 59 64 66 64 63 68 76 84 81 77 72 70
347 2 14 15 1 24 57 23 122 154 106 35 23 70 349 2 11 21 57 20 18 25 38 80 81 63 61 52 42 39 35 45 66 70 69 68 64 57 52 50 46 42 43 48 45 49 49 42 43 55 69 86 84 81
17 23 6 15 19 355 342 3 24 107 90 54 60 29 347 324 2 68 72 359 23 30 34 54 79 43 44 50 61 57 43 23 36 65 62 54 52 50 45 48 46 47 39 28 22 18 19 21 22 30 40 60 73 75
22 27 21 19 19 2 18 359 4 44 63 118 99 319 320 12 61 58 350 325 8 13 30 74 20 25 36 61 61 60 42 34 60 83 78 55 42 33 46 53 50 45 40 32 35 30 36 45 52 53 55 52 53 53
69 22 33 0 4 44 337 10 360 315 93 89 70 126 83 65 77 308 269 333 336 350 16 341 315 317 46 47 54 56 62 34 6 62 76 76 71 60 56 49 39 34 30 32 27 39 44 35 36 34 37 37 35 34
50 301 359 346 322 318 21 20 20 60 53 42 138 123 92 51 339 275 324 340 326 290 310 269 262 315 357 31 46 46 40 26 11 62 84 68 65 66 63 57 55 53 45 38 37 33 30 25 24 26 32 30 30 39
247 275 253 326 358 231 125 67 56 14 318 5 93 63 151 187 224 218 323 332 320 272 194 286 310 321 346 14 32 25 21 20 21 11 240 59 46 41 45 39 22 12 31 33 30 32 34 33 30 29 35 36 41 39
214 193 205 324 310 327 97 141 158 44 329 237 135 180 203 208 199 233 322 330 308 255 241 245 238 251 271 279 331 357 6 14 16 23 24 22 20 24 12 357 360 9 40 48 37 31 37 38 39 38 34 29 29 25
236 203 194 207 193 228 195 178 155 136 113 133 148 160 180 190 207 257 302 303 240 293 274 246 254 272 293 301 333 344 352 18 25 30 28 22 26 14 358 1 15 17 26 27 28 24 20 23 24 20 15 12 12 5
221 192 216 224 223 208 201 188 178 189 182 179 188 191 182 198 225 255 282 297 277 307 279 230 240 258 282 324 340 335 341 0 22 24 26 33 42 27 20 17 15 18 31 35 34 30 20 12 6 4 4 6 6 7
212 197 190 206 224 190 179 184 193 207 213 198 192 198 207 215 226 212 220 271 308 309 307 305 320 316 307 334 352 342 336 335 12 18 20 28 25 15 7 4 10 354 344 347 358 354 352 2 5 2 3 1 360 359
237 217 219 145 146 176 194 189 205 210 201 204 208 211 211 208 199 201 211 263 289 308 307 320 325 317 322 351 357 344 342 326 359 6 15 20 4 356 353 349 355 8 360 354 1 360 358 356 353 351 349 351 358 358
Wind_Speed_850mb
38 41 43 46 47 49 50 51 52 52 53 51 49 45 40 35 28 30 35 26 27 25 48 55 53 39 33 21 7 11 18 3 4 5 4 6 6 8 8 10 10 15 20 13 13 14 16 27 18 14 20 68 56 34
37 39 43 46 49 52 55 56 57 59 59 58 57 54 46 37 33 28 39 23 26 34 53 64 74 78 66 65 41 25 19 6 5 1 3 3 8 6 9 9 8 10 10 15 17 11 7 4 8 35 46 59 59 40
37 40 45 47 51 55 59 61 63 65 63 61 60 57 48 39 33 32 39 39 35 34 56 36 36 21 28 39 52 28 30 21 15 22 8 7 11 5 7 8 11 13 17 12 11 9 11 31 55 61 68 65 28 7
43 45 50 53 57 62 67 69 69 68 64 68 67 62 51 39 35 31 39 42 34 17 13 19 30 34 39 39 46 58 63 24 30 27 12 7 6 11 7 10 9 19 12 26 31 8 7 22 44 53 71 36 33 26
47 50 55 60 64 66 71 74 76 74 76 79 72 57 46 38 34 35 41 44 45 33 10 30 68 14 6 17 38 53 65 70 46 12 8 7 8 8 5 9 20 19 14 16 18 13 12 12 27 40 46 21 45 48
52 54 57 62 67 72 74 77 78 80 85 79 63 51 39 32 26 30 12 14 14 32 10 8 19 25 17 12 25 36 43 52 33 17 9 11 16 10 7 7 15 35 29 12 8 26 50 30 19 32 16 36 60 59
58 61 64 66 69 73 74 79 80 85 86 71 63 41 31 24 21 26 14 9 20 19 6 9 10 15 22 13 14 28 29 29 28 16 11 13 21 19 7 7 22 28 8 11 29 47 38 27 22 18 31 52 67 67
64 67 68 69 70 73 75 78 80 88 82 77 53 40 32 18 18 24 36 44 42 16 7 5 8 13 15 9 2 1 16 30 19 17 14 6 11 9 9 25 21 20 20 15 24 14 57 43 28 18 25 42 56 58
65 65 66 68 68 71 73 74 81 85 83 68 43 29 10 4 7 11 6 6 21 14 6 6 4 5 17 4 10 12 2 1 11 5 4 4 4 8 17 19 36 32 13 32 33 40 54 41 41 31 33 45 55 51
64 62 61 63 64 64 66 68 79 78 80 57 25 11 6 21 28 11 4 6 10 9 9 5 7 7 7 1 3 6 5 3 4 3 6 3 6 33 39 30 37 35 38 53 53 35 46 42 39 38 40 38 37 40
59 56 56 59 59 60 58 66 68 73 75 46 25 9 26 25 11 4 2 1 3 4 10 13 19 6 7 5 4 9 3 4 4 2 4 6 7 17 41 38 46 48 46 58 62 55 55 46 40 36 32 28 33 36
55 52 51 54 55 53 54 52 59 69 61 44 26 23 15 8 5 6 6 3 3 5 11 8 12 18 10 10 5 5 2 2 4 14 5 6 13 42 40 16 31 44 45 47 54 54 46 37 31 32 34 31 26 35
49 46 47 48 46 48 40 46 58 62 55 23 14 12 10 12 10 10 13 8 8 6 7 9 4 8 4 2 4 2 8 6 10 7 7 6 23 24 31 44 64 41 40 46 58 64 61 53 42 38 36 32 30 31
43 40 38 39 39 31 41 51 53 52 24 16 15 17 11 11 13 9 19 14 30 34 31 4 4 3 3 2 4 6 7 6 9 11 17 19 46 43 50 60 67 59 63 60 61 62 65 61 59 55 50 41 42 46
38 29 33 31 27 35 42 44 39 38 20 16 18 13 11 27 39 46 42 49 65 52 30 7 8 11 7 8 9 9 11 11 10 12 12 39 42 50 58 60 66 66 67 69 72 72 63 58 65 59 50 50 49 39
33 29 35 27 29 35 39 34 35 31 16 16 21 15 40 28 45 64 57 55 78 57 17 21 10 10 15 9 13 14 6 11 12 11 44 52 44 55 71 78 82 87 88 79 73 72 78 73 70 69 60 63 59 54
24 27 28 22 27 40 28 27 24 26 20 15 19 53 42 35 32 47 63 56 48 47 14 10 14 15 7 12 14 13 10 11 33 47 52 46 53 61 70 71 74 75 76 75 74 76 73 69 58 55 60 60 60 60
24 24 26 24 15 29 42 38 18 16 16 24 20 44 50 57 53 53 63 77 40 33 26 11 14 15 11 12 13 17 30 45 50 56 60 58 66 66 66 71 71 69 67 70 67 65 61 56 53 53 49 47 40 40
21 25 26 22 22 21 12 22 18 11 18 24 46 52 52 55 70 69 68 68 67 57 26 14 12 8 7 11 22 42 51 45 44 49 58 54 52 55 61 61 63 62 60 59 61 61 61 59 56 54 55 51 52 48
16 19 22 25 18 8 8 10 11 11 6 15 22 40 57 56 60 65 71 66 46 41 32 11 9 18 24 43 49 53 46 42 43 52 54 55 58 56 56 56 57 55 53 51 54 53 50 50 50 48 46 46 46 45
12 13 18 17 16 14 7 7 8 6 6 6 2 9 11 22 45 56 56 48 42 37 19 30 44 48 53 54 53 50 43 46 48 46 44 53 53 55 56 57 55 54 54 52 52 53 54 47 42 43 44 44 41 40
4 9 10 11 10 7 6 9 4 7 3 4 7 9 8 9 13 14 25 32 25 26 34 29 36 41 47 53 56 53 40 42 45 45 43 42 50 50 50 47 48 51 51 48 45 43 42 36 34 31 32 35 30 29
6 5 6 9 6 7 3 3 2 3 4 2 6 6 7 10 13 10 10 18 18 35 42 24 24 30 34 34 39 46 44 26 30 35 38 40 39 39 40 41 39 38 36 37 33 31 29 29 33 31 26 27 28 33
6 5 7 5 8 6 8 7 2 5 4 5 5 3 4 6 12 8 5 13 28 36 37 22 14 20 27 34 36 36 34 30 18 19 23 25 31 35 32 32 31 33 31 28 29 31 33 34 30 26 27 26 27 31
4 6 6 7 6 6 6 8 10 9 4 4 4 2 3 5 5 4 2 8 20 24 22 12 18 14 21 24 29 25 21 16 18 27 23 20 20 19 23 25 25 25 25 27 30 31 29 24 28 29 29 29 28 26
7 6 4 10 5 4 4 4 4 2 2 4 3 5 2 5 4 4 4 14 16 15 24 16 8 5 9 16 22 25 16 10 16 17 22 20 20 20 22 24 23 25 21 17 20 21 21 22 24 25 25 25 24 24
4 3 1 5 6 5 4 6 5 8 5 4 3 3 4 5 3 5 11 17 18 16 23 11 12 12 11 9 14 18 23 18 17 12 8 10 16 22 22 26 30 25 21 22 20 19 19 20 21 21 21 22 21 20
0 2 1 12 4 1 4 4 4 2 4 5 4 4 4 6 8 3 13 29 29 16 7 4 8 10 7 6 10 16 22 24 30 18 3 5 7 11 15 16 14 15 15 13 17 17 17 15 16 18 20 21 19 20
6 6 3 5 3 1 1 4 4 2 6 2 8 5 7 7 7 6 15 14 8 10 13 14 11 9 7 5 6 12 17 23 36 42 30 23 20 21 20 20 18 12 15 16 18 16 16 18 18 18 18 19 19 18
8 18 9 7 7 6 8 8 10 11 9 9 8 9 9 10 12 11 12 9 6 8 10 13 10 12 14 10 11 16 17 19 30 38 38 27 17 16 26 25 16 17 13 14 17 17 16 17 17 17 19 22 23 25
9 19 8 10 10 14 16 18 17 17 16 15 13 13 13 9 11 8 8 9 10 13 9 12 11 12 11 12 21 24 16 11 17 27 34 27 21 20 24 25 16 15 14 15 12 13 14 16 20 23 23 23 26 27
16 19 13 9 6 12 28 28 24 23 18 18 18 21 17 12 9 8 3 6 15 17 11 8 12 11 9 15 21 14 11 8 10 17 26 25 20 22 19 20 24 17 17 17 14 13 15 16 18 22 24 26 26 26
7 19 12 11 11 17 17 22 19 11 19 21 22 32 24 12 8 11 10 8 15 17 9 8 12 10 7 15 22 8 6 3 7 14 20 19 19 21 17 17 20 21 20 16 14 12 13 15 19 23 25 27 27 27
Wind_Direction_850mb
356 357 358 355 352 350 347 344 340 337 333 331 327 323 322 321 307 297 294 288 269 266 272 265 260 253 250 232 230 303 335 275 350 238 277 330 244 249 286 265 294 194 164 183 231 220 254 8 11 5 307 301 296 250
349 350 349 347 346 344 341 337 334 331 328 326 322 319 310 306 307 294 286 295 285 275 270 281 275 270 257 253 248 247 242 311 285 136 218 320 292 269 302 276 310 235 185 177 203 229 151 128 280 321 324 298 290 289
339 341 341 340 340 338 336 334 333 331 328 325 321 318 310 296 295 287 289 288 292 287 299 272 280 309 253 239 239 237 247 224 218 246 211 220 240 266 263 259 300 282 196 182 256 222 233 39 358 346 334 321 333 266
329 333 333 333 335 334 332 331 332 329 326 326 322 317 308 292 282 282 277 286 276 269 276 278 298 269 266 258 249 238 236 236 249 252 238 233 232 229 250 268 276 263 270 216 224 272 264 33 358 345 326 337 77 90
325 326 326 328 329 331 331 332 332 330 330 330 326 318 304 294 283 273 269 273 269 234 283 294 301 303 116 253 238 241 236 238 237 254 235 225 226 250 269 256 240 231 238 211 218 184 123 72 2 335 323 11 86 95
322 323 323 325 327 329 331 332 332 332 337 337 330 319 307 298 286 277 286 252 207 215 276 301 308 301 313 267 240 240 236 218 212 204 236 230 213 204 245 264 290 277 264 227 225 151 123 103 8 325 320 71 88 86
320 321 322 325 327 328 331 332 332 335 341 338 328 329 323 317 265 235 247 254 191 234 250 290 284 286 323 309 244 231 218 201 198 220 236 234 243 225 234 241 240 247 243 322 148 129 112 131 118 354 48 82 88 83
317 319 321 324 326 330 332 331 332 336 344 338 326 316 307 297 293 257 281 275 264 255 222 264 275 304 352 338 66 342 195 209 231 232 240 233 276 226 253 266 304 292 294 252 176 135 123 122 122 47 61 81 81 81
316 317 319 321 324 328 331 331 332 340 344 343 331 339 23 24 289 287 288 206 197 199 203 223 263 284 340 5 14 320 268 229 249 257 257 277 312 241 272 312 295 285 228 157 145 124 109 106 96 107 92 86 87 82
319 319 319 320 325 330 332 332 334 340 344 350 346 3 26 332 335 289 95 138 181 202 216 243 241 264 299 308 273 283 223 248 243 291 331 306 262 278 324 354 2 79 127 134 118 108 111 101 101 91 78 75 74 77
321 321 322 322 328 331 333 336 338 340 352 348 338 337 323 343 332 310 49 354 160 243 221 238 217 249 249 241 217 219 341 352 300 337 342 331 309 325 358 31 33 63 90 108 110 106 101 101 100 98 87 76 73 80
326 327 325 325 330 333 339 343 341 342 345 335 326 318 338 358 359 338 297 137 241 264 207 208 223 214 253 239 16 30 285 255 337 334 356 17 327 340 330 359 41 67 47 77 90 85 81 74 85 97 98 77 84 82
334 333 332 332 337 343 353 354 347 346 348 345 344 340 351 8 10 17 337 301 308 261 234 220 230 225 233 114 174 338 19 20 332 19 7 252 275 337 16 45 67 59 76 85 89 88 75 69 110 96 89 92 94 95
343 345 341 345 350 360 0 355 357 354 359 12 8 346 27 352 0 337 324 330 335 335 333 300 155 262 271 25 59 30 15 349 31 15 21 17 19 38 63 75 69 65 73 80 81 84 74 73 74 73 69 75 80 76
353 357 359 7 21 11 5 13 11 9 8 31 26 15 357 331 340 356 5 13 1 356 5 2 39 38 7 51 21 16 23 19 354 20 15 9 34 50 62 61 63 72 69 76 80 78 75 74 74 70 75 70 74 83
1 16 15 28 33 23 22 29 32 26 34 45 38 10 352 9 6 10 5 9 12 9 360 33 31 22 26 21 7 28 31 13 3 359 10 39 43 51 66 74 73 70 72 77 77 74 70 75 76 74 80 76 70 72
16 11 20 32 51 42 42 33 37 36 28 36 8 24 21 20 1 13 17 6 21 19 12 42 41 22 16 14 6 359 21 360 333 7 33 40 61 76 67 71 70 65 64 66 66 65 68 73 76 78 73 71 71 69
18 17 18 17 13 51 41 44 60 58 38 34 30 19 40 34 21 23 24 29 30 18 14 44 60 22 31 19 19 355 360 9 28 31 36 57 68 76 76 73 71 71 70 68 68 65 63 63 61 57 56 60 61 58
34 36 28 24 38 36 22 29 52 84 53 43 48 50 48 45 46 45 46 43 48 50 53 48 57 23 1 346 1 14 30 38 29 35 58 71 79 80 79 77 76 74 71 67 66 64 65 65 60 55 53 52 55 55
40 31 34 40 40 36 55 37 34 76 58 70 69 55 55 53 49 48 46 42 41 40 41 44 41 34 38 44 46 41 44 52 64 70 69 75 80 85 79 77 76 76 75 69 63 63 64 66 66 60 58 59 64 65
42 43 39 46 41 46 64 51 66 79 114 131 62 41 56 39 43 43 39 37 45 48 43 66 74 68 61 53 46 44 50 57 66 74 77 74 71 73 71 70 70 71 71 70 68 68 70 72 71 74 72 71 69 70
331 15 25 23 27 30 62 44 56 119 113 14 3 24 30 9 14 29 41 36 36 35 44 74 68 61 55 49 45 43 54 70 73 73 69 66 60 59 58 56 53 57 59 64 66 64 63 68 76 84 81 77 72 70
347 2 14 15 1 24 57 23 122 154 106 35 23 70 349 2 11 21 57 20 18 25 38 80 81 63 61 52 42 39 35 45 66 70 69 68 64 57 52 50 46 42 43 48 45 49 49 42 43 55 69 86 84 81
17 23 6 15 19 355 342 3 24 107 90 54 60 29 347 324 2 68 72 359 23 30 34 54 79 43 44 50 61 57 43 23 36 65 62 54 52 50 45 48 46 47 39 28 22 18 19 21 22 30 40 60 73 75
22 27 21 19 19 2 18 359 4 44 63 118 99 319 320 12 61 58 350 325 8 13 30 74 20 25 36 61 61 60 42 34 60 83 78 55 42 33 46 53 50 45 40 32 35 30 36 45 52 53 55 52 53 53
69 22 33 0 4 44 337 10 360 315 93 89 70 126 83 65 77 308 269 333 336 350 16 341 315 317 46 47 54 56 62 34 6 62 76 76 71 60 56 49 39 34 30 32 27 39 44 35 36 34 37 37 35 34
50 301 359 346 322 318 21 20 20 60 53 42 138 123 92 51 339 275 324 340 326 290 310 269 262 315 357 31 46 46 40 26 11 62 84 68 65 66 63 57 55 53 45 38 37 33 30 25 24 26 32 30 30 39
247 275 253 326 358 231 125 67 56 14 318 5 93 63 151 187 224 218 323 332 320 272 194 286 310 321 346 14 32 25 21 20 21 11 240 59 46 41 45 39 22 12 31 33 30 32 34 33 30 29 35 36 41 39
214 193 205 324 310 327 97 141 158 44 329 237 135 180 203 208 199 233 322 330 308 255 241 245 238 251 271 279 331 357 6 14 16 23 24 22 20 24 12 357 360 9 40 48 37 31 37 38 39 38 34 29 29 25
236 203 194 207 193 228 195 178 155 136 113 133 148 160 180 190 207 257 302 303 240 293 274 246 254 272 293 301 333 344 352 18 25 30 28 22 26 14 358 1 15 17 26 27 28 24 20 23 24 20 15 12 12 5
221 192 216 224 223 208 201 188 178 189 182 179 188 191 182 198 225 255 282 297 277 307 279 230 240 258 282 324 340 335 341 0 22 24 26 33 42 27 20 17 15 18 31 35 34 30 20 12 6 4 4 6 6 7
212 197 190 206 224 190 179 184 193 207 213 198 192 198 207 215 226 212 220 271 308 309 307 305 320 316 307 334 352 342 336 335 12 18 20 28 25 15 7 4 10 354 344 347 358 354 352 2 5 2 3 1 360 359
237 217 219 145 146 176 194 189 205 210 201 204 208 211 211 208 199 201 211 263 289 308 307 320 325 317 322 351 357 344 342 326 359 6 15 20 4 356 353 349 355 8 360 354 1 360 358 356 353 351 349 351 358 358